STRATOSAT-TK 1 (RS52S)

Last updated on Thu Oct 30 2025 00:03:10 GMT+0000 (Coordinated Universal Time)

1 57167U 23091B 25302.51901778 .00123457 00000+0 16037-2 0 9991 2 57167 97.5310 11.8874 0005623 162.1170 198.0284 15.58374157129950
UTC large
Height (km)
Speed (km/s)
/
Latitude / Longitude
Inclination (degrees)
Orbital Period (minutes)
Azimuth
Elevation
Range (km)
Doppler Factor

Next 0 passes for location: London (51.5072 / 0.1276)

Sorry there are no passes over London.